Regional Weather Roundup
Issued by NWS Cleveland, OH

Home | Current Version | Previous Version | Graphics & Text | Print | Product List | Glossary On
Versions: 1 2 3 4 5 6 7 8 9 10 11 12 13 14 15 16 17 18 19 20 21 22 23 24 25 26 27 28 29 30 31 32 33 34 35 36 37 38 39 40 41 42 43 44 45 46 47 48 49 50
000
ASUS41 KCLE 220712
RWRCLE
OHIO REGIONAL WEATHER ROUNDUP
NATIONAL WEATHER SERVICE WILMINGTON, OH
300 AM EDT MON MAY 22 2017

NOTE: "FAIR" INDICATES FEW OR NO CLOUDS BELOW 12,000 FEET WITH NO
SIGNIFICANT WEATHER AND/OR OBSTRUCTIONS TO VISIBILITY.

OHZ001>008-015>018-024>027-034-035-043-044-220800-
   NORTHWEST OHIO

CITY           SKY/WX    TMP DP  RH WIND       PRES   REMARKS
DEFIANCE       MOCLDY    52  42  69 W10G18    30.02R
FINDLAY        CLOUDY    56  45  66 W13       30.01R
TOLEDO EXPRESS CLOUDY    56  47  71 W17       29.98S
TOLEDO EXEC    CLOUDY    58  48  69 W12       29.99S
LIMA           MOCLDY    54  48  80 W14       30.04R
$$

OHZ009>014-019>023-028>033-038-089-220800-
   NORTHEAST OHIO

CITY           SKY/WX    TMP DP  RH WIND       PRES   REMARKS
CLE-HOPKINS    CLOUDY    63  56  78 W6        29.99S
CLE-LAKEFRONT  LGT RAIN  60  55  83 W8        29.96F
CUY CO. ARPT   NOT AVBL
LORAIN-ELYRIA  FAIR      59  51  75 W7        29.98S
ASHTABULA      FAIR      63  58  83 W12       29.97S
AKRON-CANTON   RAIN      62  58  86 NW5       29.97F FOG
WOOSTER        CLOUDY    60  56  86 NW10      30.00R
MANSFIELD      MOCLDY    58  52  80 W9G18     30.00F
YOUNGSTOWN     CLOUDY    66  63  90 S6        29.96F
$$

OHZ042-051>053-060>062-070>072-077>081-220800-
  SOUTHWEST OHIO

CITY           SKY/WX    TMP DP  RH WIND       PRES   REMARKS
CINC-COVINGTON MOCLDY    58  49  72 NW15      30.08R
CINC-LUNKEN    FAIR      60  52  74 W7        30.08R
HAMILTON       MOCLDY    59  50  72 W7        30.09R
DAYTON         FAIR      56  48  74 W15G22    30.07R
WRIGHT-PAT AFB FAIR      57  53  87 W7        30.06R
DAYTON GENERAL FAIR      57  49  74 W10       30.06R
WILMINGTON     FAIR      58  52  80 NW13G23   30.05R
$$

OHZ036-037-039>041-045>050-054>059-063>069-073>076-082>088-220800-
  CENTRAL AND SOUTHEAST OHIO

CITY           SKY/WX    TMP DP  RH WIND       PRES   REMARKS
COLUMBUS       CLOUDY    61  57  87 NW9       30.01R
OSU AIRPORT    CLOUDY    59  53  80 W13       30.03R
BOLTON FIELD   CLOUDY    58  53  83 NW7       30.04R
RICKENBACK AFB CLOUDY    60  54  81 NW12      30.02R
NEWARK         CLOUDY    63  55  75 NW10      30.00R
MARION         FAIR      57  50  77 W5        30.03R
LANCASTER      CLOUDY    65  57  75 NW8       30.02R
ZANESVILLE     CLOUDY    67  64  90 SW5       29.98S
NEW PHILLY     CLOUDY    68  65  90 S6        29.97F
$$




USA.gov is the U.S. government's official web portal to all federal, state and local government web resources and services.